Regional Weather Roundup
Issued by NWS State College, PA

Home | Current Version | Previous Version | Text Only | Print | Product List | Glossary On
Versions: 1 2 3 4 5 6 7 8 9 10 11 12 13 14 15 16 17 18 19 20 21 22 23 24 25 26 27 28 29 30 31 32 33 34 35 36 37 38 39 40 41 42 43 44 45 46 47 48 49 50
000
ASUS41 KCTP 272310
RWRCTP

REGIONAL WEATHER ROUNDUP
NATIONAL WEATHER SERVICE STATE COLLEGE PA
600 PM EST SAT DEC 27 2014

Note: "fair" indicates few or no clouds below 12,000 feet with no
significant weather and/or obstructions to visibility.

* = STATION THAT DOES NOT REPORT PRECIPITATION /E.G. RAIN...SNOW...ETC/
    THUNDER OR FOG.

PAZ002>004-007>009-013>016-020>023-029>032-280000-
WESTERN PENNSYLVANIA

CITY           SKY/WX    TMP DP  RH WIND       PRES   REMARKS
ERIE           CLOUDY    56  27  32 SW14G23   29.99S
MEADVILLE      CLOUDY    53  28  38 SW12G18   30.02S
FRANKLIN*      CLOUDY    52  28  40 SW14G20   30.06S
NEW CASTLE       N/A     54  27  35 S5        30.07S
BEAVER COUNTY  NOT AVBL
BUTLER*        CLOUDY    54  28  37 SW3       30.09S
PITTSBURGH INT MOCLDY    54  23  30 S7        30.07F
PITTSBURGH     PTCLDY    53  23  31 S9        30.08S
INDIANA*       CLOUDY    54  34  47 SW6       30.12S
LATROBE        PTCLDY    50  32  50 S3        30.11S
WASHINGTON CO* NOT AVBL
$$

PAZ004>006-010>012-017>019-024>028-033>037-041-042-045-046-049>053-280000-
CENTRAL PENNSYLVANIA

CITY           SKY/WX    TMP DP  RH WIND       PRES   REMARKS
BRADFORD       MOCLDY    45  34  65 S8        30.04R
DUBOIS         CLOUDY    50  34  54 SW8       30.06S
CLEARFIELD     CLOUDY    46  36  68 N5        30.08R
JOHNSTOWN      MOCLDY    52  31  44 SW7       30.09S
ALTOONA        CLEAR     50  29  44 S7        30.11S
STATE COLLEGE  CLEAR     50  34  53 SW6       30.10R
WILLIAMSPORT   CLOUDY    46  32  58 CALM      30.11R
SELINSGROVE    MOCLDY    43  35  73 CALM      30.13R
FT INDIANTOWN  PTCLDY    45  35  68 CALM      30.16R
CAPITAL CITY   CLEAR     44  35  70 CALM      30.16R
HARRISBURG     PTCLDY    43  34  70 CALM      30.15R
YORK           CLEAR     42  31  64 CALM      30.16R
$$

PAZ038>040-043-044-047-048-054-055-060>062-067>071-280000-
EASTERN PENNSYLVANIA

CITY           SKY/WX    TMP DP  RH WIND       PRES   REMARKS
SCRANTON       MOCLDY    45  33  63 CALM      30.11F
MOUNT POCONO   PTCLDY    44  31  60 SW3       30.12S
ALLENTOWN      PTCLDY    49  34  56 CALM      30.16R
QUAKERTOWN*    PTCLDY    43  32  65 CALM      30.17R
READING        PTCLDY    50  32  50 S5        30.15R
LANCASTER      CLEAR     46  34  62 CALM      30.16R
COATESVILLE    CLEAR     50  32  50 CALM      30.18R
POTTSTOWN      PTCLDY    44  32  62 CALM      30.18R
BLUE BELL      PTCLDY    45  34  65 CALM      30.17R
DOYLESTOWN     PTCLDY    46  32  58 S3        30.16R
WILLOW GROVE   NOT AVBL
NORTH PHILA    CLEAR     49  29  46 CALM      30.19R
PHILADELPHIA   MOCLDY    50  30  46 S5        30.19R
$$



USA.gov is the U.S. government's official web portal to all federal, state and local government web resources and services.